Regional Weather Roundup
Issued by NWS

Home | Current Version | Previous Version | Graphics & Text | Print | Product List | Glossary On
Versions: 1 2 3 4 5 6 7 8 9 10 11 12 13 14 15 16 17 18 19 20 21 22 23 24 25 26 27 28 29 30
000
ASUS45 KGTF 180610
RWRMT
MONTANA HOURLY WEATHER ROUNDUP
NATIONAL WEATHER SERVICE GREAT FALLS MT
1200 AM MDT SAT APR 18 2015

NOTE: "FAIR" INDICATES FEW OR NO CLOUDS BELOW 12000 FEET WITH NO
SIGNIFICANT WEATHER AND/OR OBSTRUCTIONS TO VISIBILITY.

MTZ001>007-043-180700-
WEST OF THE DIVIDE

CITY           SKY/WX    TMP DP  RH WIND       PRES   REMARKS
KALISPELL      CLEAR     45  32  60 CALM      30.02R
MISSOULA       CLEAR     50  29  44 N9        30.07R
BUTTE          CLEAR     38  27  64 SE6       30.09R
DEER LODGE       N/A     41  27  56 CALM      30.11R
EUREKA           N/A     52  36  54 S5        30.03R
HAMILTON         N/A     48  30  49 SE9       30.08R
LIBBY            N/A     48  34  57 SE7       30.05R
$$

MTZ008-052>055-180700-
SOUTHWEST MONTANA

CITY           SKY/WX    TMP DP  RH WIND       PRES   REMARKS
BOZEMAN        CLEAR     36  26  67 SE7       30.05S WCI  30
DILLON         CLEAR     43  26  51 S9        30.06S
$$

MTZ009-010-012-014-046-048-049-054-180700-
EAST SLOPES AND CENTRAL MONTANA

CITY           SKY/WX    TMP DP  RH WIND       PRES   REMARKS
CUT BANK       CLEAR     44  28  53 NW7       29.99R
GREAT FALLS    CLEAR     44  29  55 NW8       29.98R
MALMSTROM AFB  CLEAR     51  33  49 NW6       29.98R
HELENA         CLEAR     48  25  40 W5        30.02R
$$

MTZ011-013-016-021-045-047-050-051-180700-
NORTH CENTRAL MONTANA

CITY           SKY/WX    TMP DP  RH WIND       PRES   REMARKS
HAVRE          CLEAR     49  31  49 NW5       29.92S
LEWISTOWN      CLEAR     44  25  47 SE7       29.99F
FORT BENTON      N/A     52  34  50 S3        29.96S
$$

MTZ017>020-022>042-056>058-061-062-180700-
EASTERN PLAINS

CITY           SKY/WX    TMP DP  RH WIND       PRES   REMARKS
BAKER          CLEAR     42  30  62 CALM      30.07F
BILLINGS       CLEAR     51  32  48 CALM      30.01F
GLASGOW        CLEAR     45  27  49 SE9       29.98F
JORDAN           N/A     44  30  57 VRB3      29.99F
LIVINGSTON     CLEAR     38  23  55 SW3       30.05R
MILES CITY     CLEAR     49  29  46 S7        30.02F
SIDNEY         CLEAR     48  27  43 CALM      30.05R
WOLF POINT     CLEAR     42  29  59 NE7       30.01F
BIG TIMBER       N/A     43  25  49 W6        30.04S
FORSYTH          N/A     48  32  53 SE6       30.01F
PLENTYWOOD       N/A     46  28  49 SE8       30.04F
POPLAR           N/A     52  28  40 E10       30.01F
$$

REGIONAL REPORTS...DAKOTAS

CITY           SKY/WX    TMP DP  RH WIND       PRES   REMARKS
WILLISTON      CLEAR     51  27  39 SE8       30.07S
MINOT          FAIR      44  26  49 E9        30.11S
DICKINSON      CLEAR     43  21  41 E9        30.06S
BEACH          FAIR      36  27  69 S3        30.07S
CROSBY         FAIR      45  28  53 SE9       30.08S
WATFORD CITY   FAIR      45  27  49 E13       30.05F
BISMARCK       CLEAR     46  29  51 E8        30.11S
GRAND FORKS    FAIR      35  27  72 N7        30.15S WCI  29
FARGO          FAIR      48  21  34 N10       30.11R
BUFFALO SD       N/A     49  29  46 S6        30.01F
RAPID CITY     CLOUDY    47  45  93 NW3       30.09F
$$

REGIONAL REPORTS...WYOMING/IDAHO/WASHINGTON

CITY           SKY/WX    TMP DP  RH WIND       PRES   REMARKS
GILLETTE       MOCLDY    44  39  82 SW7       30.08F
SHERIDAN       PTCLDY    41  33  73 S6        30.04F
BUFFALO WY     MOCLDY    45  37  73 S14       30.09F
CODY           CLEAR     45  30  57 SW9       30.07S
YELLOWSTONE LA   N/A     28  21  75 CALM      30.15S
IDAHO FALLS    CLEAR     51  28  41 S13       30.04R
SALMON         CLEAR     50  27  40 W3        30.06R
BOISE          CLEAR     59  32  36 W5        30.03S
SPOKANE        CLEAR     53  36  52 SW12      30.08R
$$

REGIONAL REPORTS...ALBERTA

CITY           SKY/WX    TMP DP  RH WIND       PRES   REMARKS
EDMONTON       CLEAR     43  34  70 NW14      30.02R
CALGARY        MOCLDY    43  28  56 N8        30.01R
LETHBRIDGE     CLEAR     48  28  46 NW9G17    29.98R
MEDICINE HAT   CLOUDY    59  28  31 W16G26    29.91R
$$

REGIONAL REPORTS...SASKATCHEWAN

CITY           SKY/WX    TMP DP  RH WIND       PRES   REMARKS
SWIFT CURRENT  CLEAR     50  27  40 S21G26    29.87F
REGINA         PTCLDY    45  28  53 SE21      30.01F
SASKATOON      MOCLDY    50  25  37 SE22G29   29.86F
$$



USA.gov is the U.S. government's official web portal to all federal, state and local government web resources and services.